Regional Weather Roundup
Issued by NWS

Home | Current Version | Previous Version | Text Only | Print | Product List | Glossary Off
Versions: 1 2 3 4 5 6 7 8 9 10 11 12 13 14 15 16 17 18 19 20 21 22 23 24 25 26 27 28 29 30 31 32 33 34 35 36 37 38 39 40 41 42 43 44 45 46 47 48 49 50

000
ASUS45 KSLC 200910
RWRUT

UTAH REGIONAL WEATHER ROUNDUP
NATIONAL WEATHER SERVICE SALT LAKE CITY UT
200 AM MST MON NOV 20 2017

UTZ001>011-023>025-201000-

NORTHERN UTAH

CITY           SKY/WX    TMP DP  RH WIND       PRES   REMARKS
BRIGHAM CITY   MOCLDY    30  26  84 CALM      30.09S
HILL AFB       CLOUDY    32  22  67 E14       30.06F WCI  22
LOGAN          MOCLDY    31  25  78 CALM      30.07F
OGDEN          CLOUDY    32  24  72 S7        30.07S WCI  26
SALT LAKE CITY CLOUDY    35  30  82 E5        30.07F WCI  31
TOOELE VALLEY  CLOUDY    30  28  93 CALM      30.07F
WENDOVER       CLOUDY    31  25  78 NE5       30.09S WCI  26
HEBER CITY       N/A     27  21  80 CALM      30.09F
WEST JORDAN    CLOUDY    33  29  85 E3        30.07F

$$

UTZ011>015-024>027-201000-

CENTRAL/NORTHEAST UTAH

CITY           SKY/WX    TMP DP  RH WIND       PRES   REMARKS
PROVO AIRPORT  CLOUDY    30  26  85 NE5       30.10F WCI  25
MOAB/CANYONLAN CLOUDY    29   7  39 CALM      30.18S
DELTA          CLOUDY    30  19  64 N3        30.10S
PRICE          CLOUDY    26   8  46 E5        30.18R WCI  20
RICHFIELD      CLEAR     25  23  93 CALM      30.15S
ROOSEVELT      CLOUDY    23  16  74 W5        30.17S WCI  17
VERNAL         CLOUDY    25  15  66 SW3       30.14F

$$

UTZ013>016-019>022-027-201000-

SOUTHERN UTAH

CITY           SKY/WX    TMP DP  RH WIND       PRES   REMARKS
BRYCE CANYON   MOCLDY    16   7  67 SW6       30.20F WCI   7
CEDAR CITY     CLOUDY    37   9  31 E5        30.12S WCI  33
MILFORD        CLOUDY    42   7  23 SW17      30.09F
ST GEORGE      CLOUDY    41   7  24 S5        30.14S
HANKSVILLE     MOCLDY    27   5  39 CALM      30.22F
KANAB          CLEAR     25  10  54 NE5       30.21S WCI  19
BLANDING         N/A     29   5  35 NE5       30.25S WCI  24

$$

REGIONAL REPORTS     COLORADO/ARIZONA

CITY           SKY/WX    TMP DP  RH WIND       PRES   REMARKS
CRAIG, CO      CLOUDY    15  10  80 CALM      30.14F
GRAND JUNCTION CLOUDY    22  14  71 E6        30.20S WCI  14
RIFLE, CO      CLOUDY    20  16  84 CALM      30.23R
MONTROSE, CO   CLOUDY    21  15  78 SE8       30.23S WCI  11
CORTEZ, CO     CLOUDY    15   8  73 E8        30.21F WCI   4
COLORADO CITY    N/A     27   9  46 SE7       30.18F WCI  19
PAGE, AZ       MOCLDY    34  12  40 CALM      30.17F
GRAND CANYON   MOCLDY    16  -3  43 E3        30.20S
KINGMAN, AZ    MOCLDY    33   6  32 CALM      30.10S
FLAGSTAFF, AZ  PTCLDY    20   3  48 CALM      30.20S

$$

REGIONAL REPORTS    NEVADA/IDAHO/WYOMING

CITY           SKY/WX    TMP DP  RH WIND       PRES   REMARKS
LAS VEGAS, NV  CLOUDY    47  10  22 CALM      30.07F
ELY, NY        CLOUDY    27   2  34 SE6       30.12F WCI  20
ELKO, NV       CLOUDY    33  27  78 CALM      30.07F
POCATELLO, ID  CLOUDY    31  24  75 N8        30.01R WCI  23
BURLEY, ID     CLOUDY    31  27  85 N7        29.98R WCI  24
FORT BRIDGER,    N/A     25  11  54 W9        30.06F WCI  16
EVANSTON, WY   CLOUDY    25  14  63 SW14      30.05F WCI  13
ROCK SPRINGS,  CLOUDY    22  13  68 W8        30.04F WCI  12
KEMMERER, WY   CLOUDY    25  10  54 W9        30.04F WCI  15

$$



USA.gov is the U.S. government's official web portal to all federal, state and local government web resources and services.